Weather History for Sigonella, Italy

Change the Weather History Date:

Wednesday, February 27, 2013

  Actual Average Record
Temperature  
Mean Temperature 48 °F -  
Max Temperature 61 °F 64 °F 69 °F (1997)
Min Temperature 34 °F 43 °F 34 °F (2013)
Degree Days  
Heating Degree Days 18    
Moisture  
Dew Point 37 °F    
Average Humidity 71    
Maximum Humidity 100    
Minimum Humidity 21    
Precipitation  
Precipitation 0.00 in 0.04 in - ()
Sea Level Pressure  
Sea Level Pressure 30.14 in    
Wind  
Wind Speed 6 mph ()    
Max Wind Speed 13 mph    
Max Gust Speed -    
Visibility 6.1 miles    
Events      
Averages and records for this station are not official NWS values.
T = Trace of Precipitation, MM = Missing Value Source: Averaged Metar Reports

Daily Weather History Graph

Daily Weather History Graph

Search for Another Location

Airport:

Trip Planner

Search our weather history database for the weather conditions in past years. The results will help you decide how hot, cold, wet, or windy it might be!

Date:

Astronomy

Feb. 27, 2013 Rise Set
Actual Time 6:34 AM CET 5:52 PM CET
Civil Twilight 6:08 AM CET 6:18 PM CET
Nautical Twilight 5:37 AM CET 6:48 PM CET
Astronomical Twilight 5:07 AM CET 7:19 PM CET
Moon 7:50 PM CET (2/27) 7:03 AM CET (2/27)
Length of Visible Light 12h 10m
Length of Day
11h 17m
Full, 97% of the Moon is Illuminated
Feb 27
Full
Mar 4
Last Quarter
Mar 11
New
Mar 19
First Quarter
Mar 27
Full

Hourly Weather History & Observations

Time (CET) Temp. Windchill Dew Point Humidity Pressure Visibility Wind Dir Wind Speed Gust Speed Precip Events Conditions
12:55 AM 39.2 °F 37.0 °F 39.2 °F 100% 30.09 in 6.2 mi West 3.5 mph - N/A   Partly Cloudy
1:00 AM 39 °F - 39 °F 100% 30.12 in 6 mi West 3.5 mph - -   Scattered Clouds
1:55 AM 37.4 °F 33.8 °F 37.4 °F 100% 30.12 in 6.2 mi NNW 4.6 mph - N/A   Partly Cloudy
2:55 AM 35.6 °F 32.8 °F 35.6 °F 100% 30.12 in 6.2 mi NW 3.5 mph - N/A   Partly Cloudy
3:55 AM 39.2 °F 33.6 °F 35.6 °F 87% 30.09 in 6.2 mi NW 8.1 mph - N/A   Partly Cloudy
4:00 AM 38 °F - 36 °F 91% 30.13 in 6 mi NW 8.1 mph - -   Scattered Clouds
5:55 AM 37.4 °F 30.8 °F 37.4 °F 100% 30.09 in 6.2 mi WNW 9.2 mph - N/A   Partly Cloudy
6:55 AM 39.2 °F 33.6 °F 37.4 °F 93% 30.12 in 6.2 mi WNW 8.1 mph - N/A   Partly Cloudy
7:00 AM 40 °F - 37 °F 86% 30.13 in 6 mi WNW 8.1 mph - -   Scattered Clouds
7:55 AM 41.0 °F 38.0 °F 37.4 °F 87% 30.12 in 6.2 mi NW 4.6 mph - N/A   Partly Cloudy
8:55 AM 48.2 °F - 39.2 °F 71% 30.15 in 6.2 mi West 12.7 mph - N/A   Partly Cloudy
9:55 AM 53.6 °F - 42.8 °F 67% 30.15 in 6.2 mi WNW 6.9 mph - N/A   Partly Cloudy
10:00 AM 54 °F - 42 °F 55% 30.17 in 6 mi WNW 6.9 mph - -   Scattered Clouds
10:55 AM 55.4 °F - 33.8 °F 44% 30.15 in 6.2 mi West 9.2 mph - N/A   Scattered Clouds
11:55 AM 59.0 °F - 33.8 °F 39% 30.15 in 6.2 mi West 10.4 mph - N/A   Scattered Clouds
12:55 PM 59.0 °F - 30.2 °F 34% 30.12 in 6.2 mi West 12.7 mph - N/A   Scattered Clouds
1:00 PM 59 °F - 30 °F 21% 30.14 in 6 mi West 12.7 mph - -   Partly Cloudy
1:55 PM 59.0 °F - 30.2 °F 34% 30.12 in 6.2 mi NW 12.7 mph - N/A   Partly Cloudy
2:55 PM 59.0 °F - 30.2 °F 34% 30.12 in 6.2 mi WNW 12.7 mph - N/A   Scattered Clouds
3:55 PM 57.2 °F - 30.2 °F 36% 30.12 in 6.2 mi East 12.7 mph - N/A   Scattered Clouds
4:00 PM 58 °F - 30 °F 23% 30.14 in 6 mi East 12.7 mph - -   Partly Cloudy
4:55 PM 57.2 °F - 32.0 °F 38% 30.12 in 6.2 mi ESE 9.2 mph - N/A   Scattered Clouds
5:55 PM 50.0 °F - 37.4 °F 62% 30.12 in 6.2 mi SE 4.6 mph - N/A   Scattered Clouds
6:55 PM 46.4 °F 45.2 °F 42.8 °F 87% 30.15 in 6.2 mi South 3.5 mph - N/A   Scattered Clouds
7:00 PM 47 °F - 42 °F 76% 30.17 in 6 mi South 3.5 mph - -   Partly Cloudy
7:55 PM 46.4 °F 43.5 °F 37.4 °F 71% 30.15 in 6.2 mi WSW 5.8 mph - N/A   Scattered Clouds
8:55 PM 41.0 °F 38.0 °F 37.4 °F 87% 30.18 in 6.2 mi West 4.6 mph - N/A   Scattered Clouds
9:55 PM 41.0 °F 39.0 °F 39.2 °F 93% 30.18 in 6.2 mi WNW 3.5 mph - N/A   Partly Cloudy
10:00 PM 40 °F - 40 °F 99% 30.21 in 6 mi WNW 3.5 mph - -   Scattered Clouds
10:55 PM 41.0 °F 37.1 °F 39.2 °F 93% 30.18 in 6.2 mi NNW 5.8 mph - N/A   Partly Cloudy
11:55 PM 41.0 °F 36.4 °F 41.0 °F 100% 30.18 in 6.2 mi WNW 6.9 mph - N/A   Partly Cloudy